Time,TemperatureF,DewpointF,PressureIn,WindDirection,WindDirectionDegrees,WindSpeedMPH,WindSpeedGustMPH,Humidity,HourlyPrecipIn,Conditions,Clouds,dailyrainin,SoftwareType,DateUTC
2013-10-09 00:01:00,67.3,48.0,29.91,South,172,5.0,8.0,51,0.00,,,0.00,weatherlink.com 1.10,2013-10-09 05:01:00,
2013-10-09 00:16:00,67.0,48.0,29.90,South,172,5.0,6.0,51,0.00,,,0.00,weatherlink.com 1.10,2013-10-09 05:16:00,
2013-10-09 00:31:00,66.8,48.0,29.90,South,172,3.0,7.0,51,0.00,,,0.00,weatherlink.com 1.10,2013-10-09 05:31:00,
2013-10-09 00:46:00,67.0,48.0,29.90,South,174,6.0,8.0,51,0.00,,,0.00,weatherlink.com 1.10,2013-10-09 05:46:00,
2013-10-09 01:01:00,67.0,48.0,29.90,South,177,2.0,8.0,51,0.00,,,0.00,weatherlink.com 1.10,2013-10-09 06:01:00,
2013-10-09 01:16:00,65.8,48.0,29.90,South,177,2.0,5.0,53,0.00,,,0.00,weatherlink.com 1.10,2013-10-09 06:16:00,
2013-10-09 01:31:00,65.1,47.0,29.90,South,177,3.0,6.0,53,0.00,,,0.00,weatherlink.com 1.10,2013-10-09 06:31:00,
2013-10-09 01:46:00,64.5,47.0,29.90,South,177,2.0,5.0,53,0.00,,,0.00,weatherlink.com 1.10,2013-10-09 06:46:00,
2013-10-09 02:01:00,63.9,47.0,29.89,South,177,3.0,5.0,54,0.00,,,0.00,weatherlink.com 1.10,2013-10-09 07:01:00,
2013-10-09 02:16:00,64.7,47.0,29.89,South,178,8.0,9.0,53,0.00,,,0.00,weatherlink.com 1.10,2013-10-09 07:16:00,
2013-10-09 02:31:00,65.4,48.0,29.89,South,184,4.0,7.0,54,0.00,,,0.00,weatherlink.com 1.10,2013-10-09 07:31:00,
2013-10-09 02:46:00,65.3,49.0,29.89,South,188,7.0,14.0,57,0.00,,,0.00,weatherlink.com 1.10,2013-10-09 07:46:00,
2013-10-09 03:01:00,64.8,50.0,29.90,South,188,3.0,9.0,59,0.00,,,0.00,weatherlink.com 1.10,2013-10-09 08:01:00,
2013-10-09 03:16:00,63.9,50.0,29.90,South,188,3.0,5.0,61,0.00,,,0.00,weatherlink.com 1.10,2013-10-09 08:16:00,
2013-10-09 03:31:00,63.0,51.0,29.89,South,188,1.0,4.0,64,0.00,,,0.00,weatherlink.com 1.10,2013-10-09 08:31:00,
2013-10-09 03:46:00,62.6,51.0,29.89,South,188,4.0,6.0,66,0.00,,,0.00,weatherlink.com 1.10,2013-10-09 08:46:00,
2013-10-09 04:01:00,62.3,51.0,29.89,South,188,2.0,5.0,67,0.00,,,0.00,weatherlink.com 1.10,2013-10-09 09:01:00,
2013-10-09 04:16:00,62.8,52.0,29.89,South,187,3.0,9.0,68,0.00,,,0.00,weatherlink.com 1.10,2013-10-09 09:16:00,
2013-10-09 04:31:00,62.4,52.0,29.89,South,187,3.0,4.0,69,0.00,,,0.00,weatherlink.com 1.10,2013-10-09 09:31:00,
2013-10-09 04:46:00,62.1,52.0,29.89,South,187,2.0,5.0,70,0.00,,,0.00,weatherlink.com 1.10,2013-10-09 09:46:00,
2013-10-09 05:01:00,61.8,52.0,29.89,South,187,1.0,3.0,71,0.00,,,0.00,weatherlink.com 1.10,2013-10-09 10:01:00,
2013-10-09 05:16:00,61.3,52.0,29.90,South,187,3.0,5.0,72,0.00,,,0.00,weatherlink.com 1.10,2013-10-09 10:16:00,
2013-10-09 05:31:00,60.8,52.0,29.90,South,187,0.0,1.0,73,0.00,,,0.00,weatherlink.com 1.10,2013-10-09 10:31:00,
2013-10-09 05:46:00,58.8,51.0,29.91,South,187,0.0,1.0,75,0.00,,,0.00,weatherlink.com 1.10,2013-10-09 10:46:00,
2013-10-09 06:01:00,57.5,50.0,29.91,South,187,0.0,1.0,77,0.00,,,0.00,weatherlink.com 1.10,2013-10-09 11:01:00,
2013-10-09 06:16:00,56.6,51.0,29.91,South,187,0.0,2.0,80,0.00,,,0.00,weatherlink.com 1.10,2013-10-09 11:16:00,
2013-10-09 06:31:00,55.8,50.0,29.92,South,187,0.0,0.0,82,0.00,,,0.00,weatherlink.com 1.10,2013-10-09 11:31:00,
2013-10-09 06:46:00,54.6,49.0,29.92,South,187,0.0,1.0,81,0.00,,,0.00,weatherlink.com 1.10,2013-10-09 11:46:00,
2013-10-09 07:01:00,53.8,49.0,29.93,South,187,0.0,1.0,83,0.00,,,0.00,weatherlink.com 1.10,2013-10-09 12:01:00,
2013-10-09 07:16:00,53.4,49.0,29.93,South,187,0.0,0.0,84,0.00,,,0.00,weatherlink.com 1.10,2013-10-09 12:16:00,
2013-10-09 07:31:00,52.8,48.0,29.93,South,187,0.0,1.0,85,0.00,,,0.00,weatherlink.com 1.10,2013-10-09 12:31:00,
2013-10-09 07:46:00,52.6,49.0,29.93,South,187,0.0,1.0,86,0.00,,,0.00,weatherlink.com 1.10,2013-10-09 12:46:00,
2013-10-09 08:01:00,52.7,49.0,29.94,South,187,0.0,0.0,87,0.00,,,0.00,weatherlink.com 1.10,2013-10-09 13:01:00,
2013-10-09 08:16:00,54.2,51.0,29.94,South,187,0.0,0.0,88,0.00,,,0.00,weatherlink.com 1.10,2013-10-09 13:16:00,
2013-10-09 08:31:00,56.7,52.0,29.95,South,187,0.0,2.0,83,0.00,,,0.00,weatherlink.com 1.10,2013-10-09 13:31:00,
2013-10-09 08:46:00,58.2,52.0,29.95,South,187,0.0,2.0,80,0.00,,,0.00,weatherlink.com 1.10,2013-10-09 13:46:00,
2013-10-09 09:02:00,60.1,54.0,29.95,South,187,0.0,2.0,79,0.00,,,0.00,weatherlink.com 1.10,2013-10-09 14:02:00,
2013-10-09 09:17:00,62.8,56.0,29.96,South,187,0.0,1.0,78,0.00,,,0.00,weatherlink.com 1.10,2013-10-09 14:17:00,
2013-10-09 09:33:00,65.7,58.0,29.96,South,187,0.0,2.0,75,0.00,,,0.00,weatherlink.com 1.10,2013-10-09 14:33:00,
2013-10-09 09:47:00,68.9,60.0,29.96,South,187,5.0,7.0,72,0.00,,,0.00,weatherlink.com 1.10,2013-10-09 14:47:00,
2013-10-09 10:02:00,70.6,59.0,29.96,South,182,5.0,11.0,67,0.00,,,0.00,weatherlink.com 1.10,2013-10-09 15:02:00,
2013-10-09 10:17:00,71.7,58.0,29.97,South,182,4.0,13.0,63,0.00,,,0.00,weatherlink.com 1.10,2013-10-09 15:17:00,
2013-10-09 10:32:00,72.6,59.0,29.97,SSW,202,5.0,11.0,62,0.00,,,0.00,weatherlink.com 1.10,2013-10-09 15:32:00,
2013-10-09 10:47:00,73.0,58.0,29.97,South,188,3.0,10.0,60,0.00,,,0.00,weatherlink.com 1.10,2013-10-09 15:47:00,
2013-10-09 11:02:00,73.3,57.0,29.97,SSW,196,6.0,12.0,58,0.00,,,0.00,weatherlink.com 1.10,2013-10-09 16:02:00,
2013-10-09 11:17:00,73.9,59.0,29.96,SSW,192,6.0,11.0,59,0.00,,,0.00,weatherlink.com 1.10,2013-10-09 16:17:00,
2013-10-09 11:32:00,75.0,58.0,29.96,SSW,194,5.0,13.0,55,0.00,,,0.00,weatherlink.com 1.10,2013-10-09 16:32:00,
2013-10-09 11:47:00,75.8,57.0,29.96,South,185,5.0,12.0,53,0.00,,,0.00,weatherlink.com 1.10,2013-10-09 16:47:00,
2013-10-09 12:02:00,76.4,57.0,29.95,SSW,203,4.0,11.0,51,0.00,,,0.00,weatherlink.com 1.10,2013-10-09 17:02:00,
2013-10-09 12:17:00,76.9,57.0,29.95,SSE,162,3.0,10.0,50,0.00,,,0.00,weatherlink.com 1.10,2013-10-09 17:17:00,
2013-10-09 12:32:00,78.2,58.0,29.94,South,180,6.0,9.0,50,0.00,,,0.00,weatherlink.com 1.10,2013-10-09 17:32:00,
2013-10-09 12:47:00,78.5,57.0,29.94,South,178,4.0,8.0,48,0.00,,,0.00,weatherlink.com 1.10,2013-10-09 17:47:00,
2013-10-09 13:02:00,79.4,58.0,29.93,South,177,5.0,9.0,48,0.00,,,0.00,weatherlink.com 1.10,2013-10-09 18:02:00,
2013-10-09 13:17:00,80.0,58.0,29.92,SSW,200,5.0,9.0,47,0.00,,,0.00,weatherlink.com 1.10,2013-10-09 18:17:00,
2013-10-09 13:33:00,80.1,58.0,29.91,South,173,6.0,11.0,47,0.00,,,0.00,weatherlink.com 1.10,2013-10-09 18:33:00,
2013-10-09 13:48:00,80.6,57.0,29.90,South,169,3.0,11.0,45,0.00,,,0.00,weatherlink.com 1.10,2013-10-09 18:48:00,
2013-10-09 14:03:00,80.8,57.0,29.89,South,189,4.0,14.0,44,0.00,,,0.00,weatherlink.com 1.10,2013-10-09 19:03:00,
2013-10-09 14:18:00,81.5,57.0,29.88,South,178,6.0,11.0,43,0.00,,,0.00,weatherlink.com 1.10,2013-10-09 19:18:00,
2013-10-09 14:33:00,81.6,56.0,29.88,South,190,6.0,9.0,41,0.00,,,0.00,weatherlink.com 1.10,2013-10-09 19:33:00,
2013-10-09 14:48:00,82.1,57.0,29.87,SSE,164,2.0,10.0,42,0.00,,,0.00,weatherlink.com 1.10,2013-10-09 19:48:00,
2013-10-09 15:03:00,82.9,57.0,29.87,SSE,165,8.0,11.0,41,0.00,,,0.00,weatherlink.com 1.10,2013-10-09 20:03:00,
2013-10-09 15:18:00,83.4,57.0,29.86,South,182,5.0,13.0,40,0.00,,,0.00,weatherlink.com 1.10,2013-10-09 20:18:00,
2013-10-09 15:33:00,83.1,56.0,29.86,South,190,8.0,10.0,40,0.00,,,0.00,weatherlink.com 1.10,2013-10-09 20:33:00,
2013-10-09 15:48:00,83.6,55.0,29.86,SSE,155,3.0,11.0,38,0.00,,,0.00,weatherlink.com 1.10,2013-10-09 20:48:00,
2013-10-09 16:03:00,83.5,54.0,29.85,South,179,3.0,12.0,36,0.00,,,0.00,weatherlink.com 1.10,2013-10-09 21:03:00,
2013-10-09 16:18:00,83.4,55.0,29.85,SSE,155,7.0,14.0,38,0.00,,,0.00,weatherlink.com 1.10,2013-10-09 21:18:00,
2013-10-09 16:33:00,83.4,57.0,29.85,South,180,4.0,11.0,40,0.00,,,0.00,weatherlink.com 1.10,2013-10-09 21:33:00,
2013-10-09 16:48:00,83.5,55.0,29.85,South,186,3.0,11.0,37,0.00,,,0.00,weatherlink.com 1.10,2013-10-09 21:48:00,
2013-10-09 17:03:00,83.2,55.0,29.85,South,175,5.0,13.0,38,0.00,,,0.00,weatherlink.com 1.10,2013-10-09 22:03:00,
2013-10-09 17:18:00,83.1,54.0,29.84,South,187,5.0,11.0,37,0.00,,,0.00,weatherlink.com 1.10,2013-10-09 22:18:00,
2013-10-09 17:33:00,82.7,54.0,29.84,South,186,4.0,11.0,37,0.00,,,0.00,weatherlink.com 1.10,2013-10-09 22:33:00,
2013-10-09 17:48:00,82.5,56.0,29.84,South,171,4.0,12.0,40,0.00,,,0.00,weatherlink.com 1.10,2013-10-09 22:48:00,
2013-10-09 18:03:00,82.0,56.0,29.84,SSE,168,7.0,9.0,41,0.00,,,0.00,weatherlink.com 1.10,2013-10-09 23:03:00,
2013-10-09 18:18:00,81.0,55.0,29.84,South,169,5.0,10.0,41,0.00,,,0.00,weatherlink.com 1.10,2013-10-09 23:18:00,
2013-10-09 18:33:00,80.2,55.0,29.84,SSE,163,8.0,13.0,42,0.00,,,0.00,weatherlink.com 1.10,2013-10-09 23:33:00,
2013-10-09 18:48:00,79.1,55.0,29.85,South,169,4.0,11.0,43,0.00,,,0.00,weatherlink.com 1.10,2013-10-09 23:48:00,
2013-10-09 19:03:00,78.2,55.0,29.85,SSE,168,5.0,10.0,45,0.00,,,0.00,weatherlink.com 1.10,2013-10-10 00:03:00,
2013-10-09 19:18:00,77.1,55.0,29.85,SSE,167,4.0,9.0,46,0.00,,,0.00,weatherlink.com 1.10,2013-10-10 00:18:00,
2013-10-09 19:33:00,76.1,55.0,29.85,SSE,167,1.0,5.0,48,0.00,,,0.00,weatherlink.com 1.10,2013-10-10 00:33:00,
2013-10-09 19:48:00,75.2,56.0,29.86,SSE,167,0.0,6.0,51,0.00,,,0.00,weatherlink.com 1.10,2013-10-10 00:48:00,
2013-10-09 20:03:00,74.4,56.0,29.86,SSE,167,1.0,6.0,53,0.00,,,0.00,weatherlink.com 1.10,2013-10-10 01:03:00,
2013-10-09 20:18:00,73.2,56.0,29.87,SSE,167,0.0,3.0,55,0.00,,,0.00,weatherlink.com 1.10,2013-10-10 01:18:00,
2013-10-09 20:33:00,72.6,56.0,29.87,SSE,167,0.0,5.0,57,0.00,,,0.00,weatherlink.com 1.10,2013-10-10 01:33:00,
2013-10-09 20:48:00,72.2,56.0,29.88,SSE,167,0.0,4.0,58,0.00,,,0.00,weatherlink.com 1.10,2013-10-10 01:48:00,
2013-10-09 21:03:00,71.5,56.0,29.88,SSE,167,0.0,3.0,59,0.00,,,0.00,weatherlink.com 1.10,2013-10-10 02:03:00,
2013-10-09 21:18:00,70.9,56.0,29.89,SSE,167,1.0,3.0,60,0.00,,,0.00,weatherlink.com 1.10,2013-10-10 02:18:00,
2013-10-09 21:33:00,70.2,56.0,29.89,SSE,167,0.0,3.0,62,0.00,,,0.00,weatherlink.com 1.10,2013-10-10 02:33:00,
2013-10-09 21:48:00,69.1,56.0,29.89,SSE,167,0.0,1.0,64,0.00,,,0.00,weatherlink.com 1.10,2013-10-10 02:48:00,
2013-10-09 22:03:00,68.2,56.0,29.90,SSE,167,0.0,3.0,66,0.00,,,0.00,weatherlink.com 1.10,2013-10-10 03:03:00,
2013-10-09 22:19:00,67.6,56.0,29.90,SSE,167,0.0,1.0,67,0.00,,,0.00,weatherlink.com 1.10,2013-10-10 03:19:00,
2013-10-09 22:33:00,66.6,56.0,29.91,SSE,167,0.0,0.0,69,0.00,,,0.00,weatherlink.com 1.10,2013-10-10 03:33:00,
2013-10-09 22:48:00,65.8,56.0,29.91,SSE,167,0.0,1.0,71,0.00,,,0.00,weatherlink.com 1.10,2013-10-10 03:48:00,
2013-10-09 23:03:00,65.4,56.0,29.91,SSE,167,0.0,1.0,72,0.00,,,0.00,weatherlink.com 1.10,2013-10-10 04:03:00,
2013-10-09 23:18:00,65.1,56.0,29.91,SSE,167,1.0,2.0,73,0.00,,,0.00,weatherlink.com 1.10,2013-10-10 04:18:00,
2013-10-09 23:33:00,65.0,57.0,29.91,SSE,167,0.0,2.0,74,0.00,,,0.00,weatherlink.com 1.10,2013-10-10 04:33:00,
2013-10-09 23:48:00,65.0,57.0,29.91,SSE,167,0.0,3.0,74,0.00,,,0.00,weatherlink.com 1.10,2013-10-10 04:48:00,